Flag for Chad Weather past 2 weeks in Ndjamena, Chad

Now
81 °F

Sunny.


Feels Like: 88 °F
Forecast: 77 / 92 °F
Wind: 13 mph from Southwest

Location: Ndjamena

Current Time: Jul 24, 2014 at 10:12:37 AM

Latest Report: Jul 24, 2014 at 9:00 AM


Visibility: 10 mi

Pressure: 29.92 "Hg

Humidity: 94%

Dew point: 79 °F

Location of NdjamenaLocation

Historic Weather in Ndjamena — Graph

°F

Ndjamena temperature yesterday

Maximum temperature yesterday: 93 °F (at 2:00 PM)
Minimum temperature yesterday: 77 °F (at 6:00 PM)
Average temperature yesterday: 82 °F

Past Weeks' High & Low Weather Summary

 TemperatureHumidityPressure
High104 °F (Jul 15, 3:00 PM)100% (Jul 10, 6:00 AM)30.01 "Hg (Jul 10, 6:00 AM)
Low70 °F (Jul 18, 6:00 AM)40% (Jul 15, 3:00 PM)29.68 "Hg (Jul 15, 4:00 PM)
Average85 °F78%29.87 "Hg
* Reported Jul 9 8:00 AM — Jul 24 8:00 AM, Ndjamena, Weather by CustomWeather, © 2014

Note: Actual official high and low records may vary slightly from our data, if they occured in-between our weather recording intervals... More about our weather records

Advertising

Ndjamena weather history for previous 24 hours

 ConditionsComfort  
Time TempWeatherWind HumidityBarometerVisibility
8:00 AM
Jul 24
79 °FSunny.10 mph94%29.89 "Hg10 mi
7:00 AM77 °FSunny.8 mph89%29.89 "Hg10 mi
6:00 AM75 °FSunny.7 mph89%29.89 "Hg10 mi
5:00 AM75 °FClear.6 mph94%29.86 "Hg10 mi
4:00 AM75 °FClear.6 mph89%29.86 "Hg10 mi
3:00 AM75 °FClear.8 mph89%29.83 "Hg10 mi
2:00 AM75 °FClear.9 mph89%29.86 "Hg10 mi
1:00 AM73 °FThunderstorms. Passing clouds.12 mph89%29.92 "HgN/A
12:00 AM77 °FThunderstorms. Passing clouds.15 mph94%29.95 "HgN/A
11:00 PM
Jul 23
77 °FClear.3 mph94%29.95 "Hg10 mi
10:00 PM79 °FClear.No wind94%29.92 "Hg10 mi
9:00 PM77 °FClear.5 mph100%29.92 "Hg10 mi
8:00 PM77 °FThunderstorms. Passing clouds.6 mph94%29.86 "HgN/A
7:00 PM77 °FThunderstorms. Passing clouds.7 mph94%29.86 "HgN/A
6:00 PM77 °FThunderstorms. Scattered clouds.10 mph94%29.86 "Hg5 mi
5:00 PM79 °FThunderstorms. Scattered clouds.12 mph94%29.83 "Hg5 mi
4:00 PM79 °FThunderstorms. Partly sunny.8 mph94%29.83 "HgN/A
3:00 PM91 °FThunderstorms. Scattered clouds.10 mph71%29.83 "Hg4 mi
2:00 PM93 °FScattered clouds.12 mph71%29.86 "HgN/A
1:00 PM91 °FScattered clouds.12 mph75%29.89 "HgN/A
12:00 PM90 °FScattered clouds.12 mph67%29.92 "HgN/A
11:00 AM90 °FScattered clouds.15 mph67%29.92 "HgN/A
10:00 AM86 °FSunny.14 mph75%29.92 "Hg10 mi
Weather by CustomWeather, © 2014

See weather overviewHow to use our weather pages